• In Czech Republic
  • List of Countries
  • For 7 days
  • Water Temperature
  • Satellite Maps
  • Weather Map
  • Weather Widgets
  • user-avatar
    Login

    Hourly Weather Avila de los Caballeros

    Today, 24 June, Sunday

    Time Temperature Precipitation Wind Pressure Humidity
    00:00 +23°C° 0 mm 2 mps 672 mmHg 42%
    01:00 +21°C° 0 mm 2 mps 672 mmHg 43%
    02:00 +21°C° 0 mm 2 mps 671 mmHg 44%
    03:00 +20°C° 0 mm 2 mps 671 mmHg 45%
    04:00 +21°C° 0 mm 2 mps 672 mmHg 46%
    05:00 +21°C° 0 mm 2 mps 672 mmHg 48%
    06:00 +21°C° 0 mm 2 mps 672 mmHg 50%
    07:00 +24°C° 0 mm 2 mps 673 mmHg 44%
    08:00 +26°C° 0 mm 2 mps 673 mmHg 39%
    09:00 +28°C° 0 mm 2 mps 673 mmHg 33%
    10:00 +30°C° 0 mm 2 mps 674 mmHg 30%
    11:00 +32°C° 0 mm 2 mps 674 mmHg 26%
    12:00 +34°C° 0 mm 2 mps 674 mmHg 23%
    13:00 +34°C° 0 mm 2 mps 673 mmHg 22%
    14:00 +35°C° 0 mm 2 mps 673 mmHg 20%
    15:00 +35°C° 0 mm 2 mps 673 mmHg 19%
    16:00 +35°C° 0 mm 2 mps 672 mmHg 21%
    17:00 +34°C° 0 mm 2 mps 672 mmHg 23%
    18:00 +34°C° 0 mm 2 mps 672 mmHg 25%
    19:00 +31°C° 0 mm 2 mps 672 mmHg 29%
    20:00 +28°C° 0 mm 2 mps 672 mmHg 32%
    21:00 +26°C° 0 mm 2 mps 671 mmHg 36%
    22:00 +25°C° 0.1 mm 2 mps 671 mmHg 38%
    23:00 +24°C° 0.1 mm 2 mps 671 mmHg 41%

    Tomorrow, 25 June, Monday

    Time Temperature Precipitation Wind Pressure Humidity
    00:00 +24°C° 0.1 mm 1 mps 671 mmHg 43%
    01:00 +23°C° 0 mm 2 mps 671 mmHg 43%
    02:00 +23°C° 0 mm 2 mps 671 mmHg 43%
    03:00 +21°C° 0 mm 2 mps 671 mmHg 44%
    04:00 +21°C° 0 mm 2 mps 671 mmHg 46%
    05:00 +21°C° 0 mm 2 mps 671 mmHg 48%
    06:00 +21°C° 0 mm 2 mps 671 mmHg 50%
    07:00 +24°C° 0 mm 2 mps 672 mmHg 45%
    08:00 +26°C° 0 mm 2 mps 673 mmHg 41%
    09:00 +28°C° 0 mm 1 mps 673 mmHg 37%
    10:00 +30°C° 0 mm 2 mps 673 mmHg 34%
    11:00 +31°C° 0 mm 2 mps 673 mmHg 31%
    12:00 +32°C° 0 mm 2 mps 673 mmHg 28%
    13:00 +34°C° 0 mm 2 mps 673 mmHg 26%
    14:00 +34°C° 0 mm 3 mps 673 mmHg 25%
    15:00 +35°C° 0 mm 3 mps 673 mmHg 24%
    16:00 +34°C° 0 mm 3 mps 673 mmHg 27%
    17:00 +33°C° 0 mm 3 mps 672 mmHg 29%
    18:00 +31°C° 0 mm 2 mps 672 mmHg 32%
    19:00 +29°C° 0.1 mm 3 mps 672 mmHg 37%
    20:00 +27°C° 0.1 mm 3 mps 672 mmHg 43%
    21:00 +25°C° 0.1 mm 3 mps 672 mmHg 48%
    22:00 +24°C° 0.3 mm 3 mps 672 mmHg 52%
    23:00 +23°C° 0.3 mm 2 mps 672 mmHg 57%

    Day after tomorrow, 26 June, Tuesday

    Time Temperature Precipitation Wind Pressure Humidity
    00:00 +21°C° 0.3 mm 2 mps 672 mmHg 61%
    01:00 +21°C° 0 mm 2 mps 672 mmHg 63%
    02:00 +20°C° 0 mm 2 mps 671 mmHg 66%
    03:00 +20°C° 0 mm 2 mps 671 mmHg 68%
    04:00 +21°C° 0 mm 1 mps 671 mmHg 68%
    05:00 +21°C° 0 mm 1 mps 671 mmHg 68%
    06:00 +22°C° 0 mm 1 mps 672 mmHg 68%
    07:00 +24°C° 0 mm 1 mps 672 mmHg 61%
    08:00 +25°C° 0 mm 2 mps 672 mmHg 54%
    09:00 +27°C° 0 mm 2 mps 673 mmHg 47%
    10:00 +28°C° 0 mm 2 mps 673 mmHg 42%
    11:00 +30°C° 0 mm 3 mps 673 mmHg 37%
    12:00 +31°C° 0 mm 3 mps 673 mmHg 32%
    13:00 +31°C° 0 mm 3 mps 673 mmHg 32%
    14:00 +31°C° 0 mm 3 mps 672 mmHg 31%
    15:00 +32°C° 0 mm 4 mps 672 mmHg 31%
    16:00 +30°C° 0 mm 3 mps 672 mmHg 33%
    17:00 +30°C° 0 mm 3 mps 671 mmHg 36%
    18:00 +29°C° 0 mm 3 mps 671 mmHg 39%
    19:00 +27°C° 0.1 mm 3 mps 671 mmHg 43%
    20:00 +25°C° 0.1 mm 3 mps 671 mmHg 46%
    21:00 +24°C° 0.1 mm 2 mps 671 mmHg 50%
    22:00 +23°C° 0 mm 2 mps 671 mmHg 51%
    23:00 +21°C° 0 mm 2 mps 671 mmHg 52%

    27 June, Wednesday

    Time Temperature Precipitation Wind Pressure Humidity
    00:00 +20°C° 0 mm 2 mps 671 mmHg 53%
    01:00 +19°C° 0 mm 2 mps 671 mmHg 56%
    02:00 +19°C° 0 mm 2 mps 671 mmHg 59%
    03:00 +18°C° 0 mm 2 mps 671 mmHg 62%
    04:00 +18°C° 0 mm 2 mps 671 mmHg 62%
    05:00 +20°C° 0 mm 1 mps 671 mmHg 61%
    06:00 +20°C° 0 mm 1 mps 671 mmHg 61%
    07:00 +21°C° 0 mm 2 mps 672 mmHg 54%
    08:00 +23°C° 0 mm 2 mps 672 mmHg 47%
    09:00 +25°C° 0 mm 2 mps 673 mmHg 40%
    10:00 +27°C° 0 mm 3 mps 673 mmHg 35%
    11:00 +28°C° 0 mm 3 mps 673 mmHg 30%
    12:00 +29°C° 0 mm 4 mps 673 mmHg 24%
    13:00 +30°C° 0 mm 4 mps 672 mmHg 23%
    14:00 +30°C° 0 mm 3 mps 672 mmHg 21%
    15:00 +30°C° 0 mm 3 mps 672 mmHg 20%
    16:00 +30°C° 0 mm 3 mps 672 mmHg 21%
    17:00 +30°C° 0 mm 3 mps 671 mmHg 22%
    18:00 +29°C° 0 mm 3 mps 671 mmHg 23%
    19:00 +27°C° 0 mm 2 mps 671 mmHg 27%
    20:00 +25°C° 0 mm 2 mps 671 mmHg 30%
    21:00 +23°C° 0 mm 2 mps 670 mmHg 34%
    22:00 +21°C° 0 mm 2 mps 670 mmHg 36%
    23:00 +21°C° 0 mm 2 mps 670 mmHg 37%

    28 June, Thursday

    Time Temperature Precipitation Wind Pressure Humidity
    00:00 +20°C° 0 mm 2 mps 670 mmHg 39%
    01:00 +21°C° 0 mm 1 mps 670 mmHg 41%
    02:00 +20°C° 0 mm 1 mps 670 mmHg 43%
    03:00 +20°C° 0 mm 1 mps 669 mmHg 45%
    04:00 +20°C° 0 mm 1 mps 669 mmHg 46%
    05:00 +20°C° 0 mm 1 mps 670 mmHg 47%
    06:00 +20°C° 0 mm 1 mps 670 mmHg 47%
    07:00 +21°C° 0 mm 2 mps 670 mmHg 43%
    08:00 +24°C° 0 mm 2 mps 670 mmHg 39%
    09:00 +26°C° 0 mm 2 mps 671 mmHg 34%
    10:00 +27°C° 0 mm 2 mps 671 mmHg 32%
    11:00 +28°C° 0 mm 3 mps 671 mmHg 31%
    12:00 +29°C° 0 mm 3 mps 671 mmHg 29%
    13:00 +29°C° 0 mm 3 mps 670 mmHg 29%
    14:00 +29°C° 0 mm 4 mps 670 mmHg 29%
    15:00 +29°C° 0 mm 4 mps 670 mmHg 29%
    16:00 +27°C° 0.2 mm 4 mps 669 mmHg 36%
    17:00 +26°C° 0.2 mm 3 mps 669 mmHg 42%
    18:00 +24°C° 0.2 mm 3 mps 669 mmHg 49%
    19:00 +22°C° 0.5 mm 3 mps 669 mmHg 54%
    20:00 +21°C° 0.5 mm 2 mps 669 mmHg 59%
    21:00 +20°C° 0.5 mm 1 mps 669 mmHg 65%
    22:00 +20°C° 0.9 mm 1 mps 668 mmHg 68%
    23:00 +19°C° 0.9 mm 1 mps 668 mmHg 71%

    29 June, Friday

    Time Temperature Precipitation Wind Pressure Humidity
    00:00 +19°C° 0.9 mm 1 mps 668 mmHg 74%
    01:00 +18°C° 0.3 mm 1 mps 668 mmHg 75%
    02:00 +18°C° 0.3 mm 1 mps 668 mmHg 76%
    03:00 +18°C° 0.3 mm 1 mps 667 mmHg 77%
    04:00 +18°C° 0 mm 1 mps 667 mmHg 75%
    05:00 +18°C° 0 mm 1 mps 668 mmHg 73%
    06:00 +18°C° 0 mm 1 mps 668 mmHg 72%
    07:00 +20°C° 0 mm 1 mps 668 mmHg 65%
    08:00 +22°C° 0 mm 1 mps 669 mmHg 58%
    09:00 +24°C° 0 mm 1 mps 669 mmHg 51%
    10:00 +25°C° 0 mm 2 mps 669 mmHg 46%
    11:00 +26°C° 0 mm 2 mps 669 mmHg 42%
    12:00 +27°C° 0 mm 3 mps 669 mmHg 38%
    13:00 +28°C° 0 mm 3 mps 669 mmHg 37%
    14:00 +28°C° 0 mm 3 mps 669 mmHg 36%
    15:00 +28°C° 0 mm 4 mps 669 mmHg 34%
    16:00 +28°C° 0 mm 4 mps 669 mmHg 36%
    17:00 +28°C° 0 mm 3 mps 668 mmHg 37%
    18:00 +27°C° 0 mm 3 mps 668 mmHg 39%
    19:00 +26°C° 0 mm 3 mps 668 mmHg 42%
    20:00 +24°C° 0 mm 2 mps 668 mmHg 46%
    21:00 +21°C° 0 mm 2 mps 668 mmHg 50%
    22:00 +21°C° 0.1 mm 2 mps 668 mmHg 50%
    23:00 +20°C° 0.1 mm 2 mps 668 mmHg 51%
    Show more